Regional Weather Roundup
Issued by NWS

Home | Current Version | Previous Version | Graphics & Text | Print | Product List | Glossary On
Versions: 1 2 3 4 5 6 7 8 9 10 11 12 13 14 15 16 17 18 19 20 21 22 23 24 25 26 27 28 29 30 31 32 33 34 35 36 37 38 39 40 41 42 43 44 45 46 47 48 49 50
000
ASUS43 KTOP 311259
RWRKS

WEATHER ROUNDUP FOR KANSAS
NATIONAL WEATHER SERVICE GOODLAND KS
700 AM CST SAT JAN 31 2015

NOTE:  "FAIR" INDICATES FEW OR NO CLOUDS BELOW 12,000 FEET WITH NO
SIGNIFICANT WEATHER AND/OR OBSTRUCTIONS TO VISIBILITY.

KSZ001>006-013>018-027>032-041>047-311400-
NORTHWEST KANSAS

CITY           SKY/WX    TMP DP  RH WIND       PRES   REMARKS
GOODLAND       CLOUDY    34  34 100 S9        29.91S FOG
HAYS           CLOUDY    32  25  74 SE9       30.05F
HILL CITY      CLOUDY    34  32  92 S8        30.01F
RUSSELL        LGT SNOW  33  32  96 S13       30.07F FOG     WCI  24
$$

KSZ061>065-074>080-084>089-311400-
SOUTHWEST KANSAS

CITY           SKY/WX    TMP DP  RH WIND       PRES   REMARKS
DODGE CITY     CLOUDY    34  31  88 S18       30.03F WCI  23
ELKHART          N/A     34  28  79 S10         N/A  WCI  26
GARDEN CITY    CLOUDY    33  32  96 S18       29.97F WCI  22
LIBERAL        CLOUDY    36  30  80 S13       30.04S WCI  27
$$

KSZ066>073-081>083-090>101-311400-
SOUTHEAST KANSAS

CITY           SKY/WX    TMP DP  RH WIND       PRES   REMARKS
CHANUTE        CLOUDY    39  35  86 S6        30.22S
COFFEYVILLE    CLOUDY    40  31  70 S3        30.23S
HUTCHINSON     LGT SNOW  35  29  78 SE9       30.15S
MEDICINE LODGE   N/A     34  32  92 SE5       30.13F
NEWTON         CLOUDY    36  25  64 SE8       30.17S
PARSONS        CLOUDY    40  31  70 CALM      30.23R
WICHITA INTL   FLURRIES  36  29  75 S7        30.17R
WICHITA JABRA  CLOUDY    37  27  67 S7        30.17R
WINFIELD       CLOUDY    40  25  55 SE9       30.19S
$$

KSZ007>012-019>026-033>040-048>060-102>105-311400-
NORTHEAST KANSAS

CITY           SKY/WX    TMP DP  RH WIND       PRES   REMARKS
CONCORDIA      LGT SNOW  32  32 100 SE5       30.15S FOG
EMPORIA        CLOUDY    36  35  96 SE7       30.18S
LAWRENCE       LGT RAIN  34  32  92 E6        30.24F
MANHATTAN      CLOUDY    37  36  96 CALM      30.19R
OLATHE IND     MIX PCPN  34  31  88 E6        30.24F
OLATHE EXE     LGT RAIN  34  32  92 E6        30.23F FOG
SALINA         CLOUDY    37  33  85 SE7       30.16F
TOPEKA BILLARD LGT RAIN  35  34  96 NE5       30.23F FOG
TOPEKA FORBES  LGT RAIN  37  35  92 E7        30.20F FOG
$$



USA.gov is the U.S. government's official web portal to all federal, state and local government web resources and services.